This is the latest recevied weather packets stored in our database for station/object N9CQL. If no packets are shown the sender has not sent any weather packets the latest 10 day(s).
| Time | Temp. | Humidity | Pressure | Rain* | Wind** | Luminosity | Snow |
|---|---|---|---|---|---|---|---|
| 1777771964 | 8.89° C | 57% | 1015 hPa | 0 mm | - | 0 W/m² | - |
| 1777771661 | 9.44° C | 57% | 1015 hPa | 0 mm | - | 0 W/m² | - |
| 1777771359 | 9.44° C | 54% | 1015 hPa | 0 mm | - | 0 W/m² | - |
| 1777771055 | 9.44° C | 53% | 1014.9 hPa | 0 mm | - | 0 W/m² | - |
| 1777770753 | 10° C | 52% | 1015 hPa | 0 mm | - | 0 W/m² | - |
| 1777770448 | 10.56° C | 50% | 1015.1 hPa | 0 mm | - | 0 W/m² | - |
| 1777770145 | 10.56° C | 50% | 1015.1 hPa | 0 mm | - | 0 W/m² | - |
| 1777769843 | 10.56° C | 50% | 1014.9 hPa | 0 mm | - | 0 W/m² | - |
| 1777769540 | 10.56° C | 49% | 1015 hPa | 0 mm | - | 0 W/m² | - |
| 1777769236 | 11.11° C | 48% | 1014.9 hPa | 0 mm | - | 1 W/m² | - |
| 1777768935 | 11.67° C | 47% | 1015.1 hPa | 0 mm | - | 3 W/m² | - |
| 1777768631 | 11.67° C | 46% | 1015.2 hPa | 0 mm | - | 4 W/m² | - |
| 1777768329 | 12.22° C | 44% | 1015 hPa | 0 mm | - | 7 W/m² | - |
| 1777768025 | 12.22° C | 44% | 1014.9 hPa | 0 mm | - | 10 W/m² | - |
| 1777767722 | 12.78° C | 43% | 1015 hPa | 0 mm | - | 13 W/m² | - |
| 1777767418 | 12.78° C | 43% | 1014.9 hPa | 0 mm | - | 17 W/m² | - |
| 1777767115 | 12.78° C | 43% | 1015.1 hPa | 0 mm | - | 24 W/m² | - |
| 1777766813 | 12.78° C | 41% | 1015 hPa | 0 mm | - | 27 W/m² | - |
| 1777766509 | 13.33° C | 42% | 1015.1 hPa | 0 mm | - | 26 W/m² | - |
| 1777766206 | 13.33° C | 41% | 1015 hPa | 0 mm | - | 28 W/m² | - |
| 1777765904 | 13.33° C | 40% | 1015 hPa | 0 mm | - | 42 W/m² | - |
| 1777765600 | 13.33° C | 41% | 1015.2 hPa | 0 mm | - | 70 W/m² | - |
| 1777765298 | 13.33° C | 41% | 1015.3 hPa | 0 mm | - | 49 W/m² | - |
| 1777764993 | 13.33° C | 42% | 1015 hPa | 0 mm | - | 36 W/m² | - |
| 1777764690 | 13.33° C | 43% | 1015.3 hPa | 0 mm | - | 49 W/m² | - |
* Rain latest hour (hover to see other rain measurements)
** Current wind speed in m/s (hover to see current wind gust speed)